Temperature
8 7 6 7 8 8 9 8 8 9 10 9 9 9 9 10 9 9 9 9 9 9 9 9 9 9 9 9 9 9 9 10 10 10 10 10 10 10 10 10 10 10 10 10
7 6 7 8 8 8 8 8 8 9 9 9 8 8 9 9 9 9 9 9 9 9 9 9 9 9 9 9 9 9 9 9 9 9 9 9 9 9 10 10 10 10 10 10
6 7 8 8 8 7 8 7 7 7 8 9 8 8 9 9 10 10 9 9 9 8 8 9 8 8 8 9 9 9 9 9 9 9 9 9 9 9 9 9 10 10 10 10
6 7 7 7 7 7 7 7 7 7 7 7 8 7 8 9 9 9 9 9 9 8 8 8 8 8 8 8 8 8 8 8 8 8 8 8 8 8 9 9 9 9 9 9
6 6 6 6 7 7 6 7 7 7 7 6 7 7 8 9 8 9 9 9 8 8 8 8 8 8 8 8 8 8 8 8 8 8 8 8 8 8 8 8 8 9 9 9
6 6 6 6 7 7 7 7 7 7 6 6 7 7 8 8 8 8 8 8 8 8 7 7 7 7 7 7 7 7 7 7 8 8 8 8 8 8 8 8 8 8 8 8
5 6 6 6 6 6 6 5 5 5 6 6 8 7 7 8 8 8 7 7 7 7 6 6 6 6 6 6 6 7 7 7 7 7 7 7 7 7 7 7 7 7 7 8
5 5 5 5 5 4 5 5 5 5 6 6 8 7 7 8 8 7 7 7 6 6 6 6 6 6 6 6 6 6 6 6 6 6 6 6 7 7 7 7 7 7 7 7
3 4 5 5 6 5 5 5 5 5 5 5 7 8 7 7 7 7 6 6 6 5 5 5 5 5 5 5 5 5 5 5 6 6 6 6 6 6 6 6 6 7 7 7
3 3 4 5 5 5 5 5 4 4 5 5 7 7 6 6 6 6 6 5 5 5 4 4 4 4 4 4 4 4 5 5 5 5 5 5 6 6 6 6 6 6 6 6
3 2 3 4 3 3 4 4 4 4 4 5 5 6 6 6 6 5 5 5 5 4 4 4 4 4 4 4 4 4 4 4 4 4 5 5 5 5 5 5 5 6 6 6
2 2 2 3 3 3 3 3 3 3 4 4 4 4 5 5 5 5 5 4 4 3 3 3 3 3 3 3 3 3 3 3 3 4 4 4 5 5 5 5 5 5 5 5
2 1 2 3 3 2 2 2 2 2 3 3 4 4 5 5 4 4 4 3 3 3 2 2 2 2 2 2 3 3 3 3 3 3 3 4 4 4 4 5 5 4 5 5
3 1 1 2 2 2 1 1 1 1 2 3 3 4 4 3 3 3 3 3 2 2 1 1 1 1 1 2 2 2 2 2 2 3 3 3 3 4 4 4 4 4 4 4
1 0 1 2 2 2 2 1 1 1 2 2 3 3 3 2 2 3 3 2 2 1 1 1 1 1 1 1 1 2 2 2 2 2 3 3 3 3 3 3 3 3 3 4
-0 -0 0 1 3 2 2 2 2 1 1 2 2 2 2 3 3 2 2 2 1 1 0 0 0 0 0 0 1 1 1 2 2 2 2 2 2 2 2 3 3 3 3 3
-0 -1 -0 1 2 2 1 1 1 1 1 1 1 2 2 2 2 2 2 1 1 0 -0 -0 -0 -0 -0 0 1 1 1 1 1 1 1 2 2 2 2 2 2 2 2 2
-1 -1 -0 0 1 0 2 2 2 1 1 1 1 1 2 2 2 2 1 1 0 -0 -0 -1 -1 -1 -0 -0 0 0 1 1 1 1 1 1 1 1 1 1 2 2 2 2
-1 -1 -1 -0 0 1 2 1 0 -0 -0 0 0 1 1 1 1 1 1 0 -0 -0 -1 -1 -1 -1 -1 -0 0 0 0 0 0 0 0 0 0 0 1 1 1 1 1 1
-2 -2 -1 -0 -0 1 2 0 0 -0 -1 0 0 0 0 0 -1 -1 0 -0 -0 -1 -1 -1 -1 -1 -1 -1 -0 -0 -0 -0 -0 -0 -1 -1 -0 -0 -0 0 0 0 0 1
-3 -2 -2 -1 -1 0 0 -0 0 -0 0 0 0 0 -0 -1 -1 -0 -1 -1 -1 -1 -1 -1 -1 -1 -1 -1 -1 -1 -1 -1 -1 -1 -1 -1 -1 -1 -1 -1 -0 -0 -0 -0
-2 -2 -2 -2 -1 -1 -1 -1 -1 -1 0 -0 -0 -0 -1 -1 -1 -1 -1 -1 -2 -2 -2 -2 -1 -1 -1 -1 -1 -1 -1 -1 -1 -2 -1 -1 -1 -1 -1 -1 -1 -1 -1 -1
-2 -2 -2 -2 -1 -0 -0 -0 -0 -0 -0 -1 -1 -1 -1 -2 -2 -2 -2 -2 -2 -2 -2 -2 -2 -2 -2 -2 -2 -2 -2 -2 -2 -2 -2 -2 -2 -2 -2 -2 -2 -2 -1 -1
-2 -2 -2 -2 -2 -0 -0 -0 -1 -1 -1 -1 -1 -1 -2 -2 -2 -3 -3 -3 -3 -3 -3 -2 -2 -2 -2 -2 -2 -2 -2 -2 -2 -2 -2 -2 -2 -2 -2 -2 -2 -2 -2 -2
-1 -3 -3 -3 -2 -1 -0 -1 -1 -1 -1 -1 -2 -2 -2 -3 -3 -3 -3 -3 -3 -3 -3 -3 -3 -3 -3 -3 -3 -3 -2 -2 -2 -3 -3 -3 -3 -3 -3 -3 -3 -2 -2 -2
-2 -2 -3 -2 -1 -2 -1 -0 -1 -1 -2 -2 -2 -2 -3 -3 -3 -3 -3 -3 -3 -3 -3 -3 -3 -3 -3 -3 -3 -3 -3 -3 -3 -3 -3 -3 -3 -3 -3 -3 -3 -3 -3 -3
Wind_Speed
0 0 2 3 4 5 6 6 8 8 5 5 7 8 7 5 4 4 3 3 3 2 2 2 1 1 1 1 1 1 1 2 2 1 1 1 1 1 1 2 3 3 2 2
0 2 4 6 6 6 6 7 8 7 5 6 6 8 7 5 5 5 4 4 3 2 1 2 2 2 1 0 0 1 1 1 1 1 0 1 2 1 2 2 2 2 2 2
1 3 4 5 5 6 6 6 7 7 8 7 5 6 6 5 3 3 3 3 3 2 2 2 2 2 0 0 0 1 1 1 1 2 2 2 2 2 1 1 1 1 1 0
2 3 4 4 5 6 6 6 8 9 6 4 3 4 6 6 5 5 4 2 2 2 2 2 2 2 1 0 0 1 2 1 1 2 3 3 2 2 1 1 1 0 0 0
2 3 4 5 5 6 6 8 9 9 6 5 4 3 4 5 5 4 3 2 2 2 3 2 2 2 1 1 1 1 2 2 2 1 2 2 1 1 1 1 1 1 0 0
4 2 2 4 6 5 7 7 7 5 2 4 5 4 3 3 4 3 1 1 1 2 2 2 2 2 1 1 2 2 2 2 2 2 2 1 1 1 2 1 1 1 0 0
2 1 1 3 4 3 3 2 2 1 2 3 3 3 3 1 1 1 2 1 1 2 2 2 2 2 2 1 2 2 2 2 1 2 2 1 1 1 3 2 2 1 1 1
3 2 1 2 2 3 3 1 1 2 3 3 3 3 2 2 3 3 3 3 3 2 2 2 2 1 1 2 2 2 2 1 1 1 1 1 1 0 1 1 1 1 1 1
3 3 1 2 3 2 2 1 2 2 3 3 4 2 1 2 2 2 3 4 3 2 2 2 2 2 2 2 1 1 1 1 1 1 1 1 1 0 1 1 1 1 1 1
2 4 3 2 1 1 2 2 2 1 2 3 3 2 1 0 0 1 2 2 2 2 3 3 3 3 3 2 1 2 1 1 1 1 1 1 1 0 1 1 0 1 1 2
2 2 3 1 0 1 1 1 1 2 2 2 3 2 3 2 2 1 2 2 2 3 3 3 3 3 3 2 1 2 2 1 1 1 1 1 1 0 1 1 1 1 1 2
2 1 3 2 0 1 1 1 1 1 3 3 3 3 4 4 4 3 3 3 4 4 3 3 3 3 3 3 2 2 2 1 1 1 0 1 1 0 1 1 1 1 1 2
1 1 3 2 1 1 2 2 2 2 2 3 3 3 3 5 5 5 4 4 4 4 4 3 3 3 3 3 3 2 2 1 1 1 1 1 1 1 1 1 1 1 1 1
1 1 3 4 4 2 3 4 3 2 3 4 5 5 5 6 5 5 5 4 4 3 4 4 3 3 3 3 3 3 2 2 1 1 1 1 1 1 1 1 1 1 1 1
1 3 4 7 8 6 6 7 5 6 6 5 6 6 6 5 4 4 3 4 4 4 4 4 4 3 3 3 3 3 2 2 1 1 1 1 1 1 1 2 2 2 2 2
1 2 3 5 6 5 7 8 7 8 7 8 9 9 5 4 4 3 3 3 4 4 4 4 4 3 3 4 3 3 2 2 2 2 2 1 1 1 2 2 2 2 2 2
1 1 2 3 3 4 6 6 7 5 5 5 8 8 5 4 3 3 3 3 4 4 4 4 4 3 3 3 3 2 2 2 2 2 2 2 1 2 2 2 3 2 2 2
3 1 2 3 3 4 4 0 2 4 6 7 7 6 5 5 4 3 3 3 3 3 4 4 3 3 2 2 3 2 2 2 2 2 2 2 2 2 2 2 2 2 2 2
2 3 2 2 3 6 3 1 1 2 5 5 6 6 5 4 4 3 3 3 3 3 3 3 2 2 2 2 2 2 1 2 2 2 2 2 2 2 2 2 2 2 1 2
1 2 2 3 3 5 3 1 1 1 4 3 3 5 4 4 3 4 4 4 3 3 2 2 2 1 1 1 2 2 1 2 2 2 2 2 2 2 2 2 2 1 1 1
3 3 5 5 5 6 2 1 2 2 4 3 3 4 3 3 4 4 4 4 3 3 3 2 2 1 1 2 2 2 2 2 1 2 2 2 2 2 2 1 2 2 1 2
6 5 6 4 5 7 2 3 3 4 2 3 4 3 3 4 4 3 3 3 3 3 3 3 2 1 1 2 2 1 1 1 2 2 2 2 2 1 1 2 1 1 1 2
7 7 4 6 7 3 4 3 3 2 3 3 4 4 3 4 4 4 4 3 3 3 3 3 2 1 2 2 1 1 1 1 1 2 1 1 1 1 1 1 1 1 1 1
5 4 4 5 7 6 5 4 3 3 3 3 3 3 2 3 4 4 4 3 3 3 2 2 2 1 1 2 1 0 1 1 1 1 1 1 1 1 1 1 1 1 1 1
4 5 5 6 6 5 5 5 4 3 2 3 3 2 2 3 4 3 3 3 3 3 2 1 1 1 1 1 1 1 0 1 1 1 1 1 1 1 1 1 1 0 0 1
5 6 6 7 5 4 4 3 2 2 3 3 3 3 2 2 3 3 3 3 2 2 2 1 1 1 1 1 1 1 0 1 1 1 0 0 1 1 1 1 2 3 1 2
Wind_Direction
54 68 277 278 263 267 272 272 272 276 278 275 254 258 254 243 234 243 245 222 218 215 191 158 118 106 102 81 91 100 94 81 90 124 133 138 129 121 98 80 89 74 81 103
308 266 281 294 295 280 274 280 283 287 288 276 260 256 243 234 227 223 227 225 224 212 195 156 133 118 126 106 111 161 130 141 134 150 157 165 146 139 129 82 71 72 71 87
288 295 306 301 307 298 280 277 281 283 292 261 256 252 224 217 214 237 237 221 207 202 206 171 150 153 139 126 183 213 182 182 152 116 89 97 98 92 84 70 48 27 22 45
293 304 301 292 296 300 286 290 288 283 279 267 231 260 228 206 211 230 232 229 202 207 187 154 156 143 149 161 174 179 186 140 120 126 128 128 149 155 179 181 182 139 326 261
309 330 310 293 295 303 288 299 284 275 269 279 241 233 242 194 220 232 225 228 228 202 162 153 165 146 129 147 153 146 143 105 91 96 134 141 136 130 128 117 130 117 85 11
270 284 311 298 297 289 295 296 281 255 246 258 236 221 247 204 230 221 220 265 271 154 134 128 136 119 94 88 108 113 120 112 97 72 82 115 135 133 142 138 152 131 141 143
295 256 284 305 305 302 317 336 334 315 247 244 204 221 233 204 41 144 177 176 43 80 105 109 109 128 114 105 96 94 96 94 100 85 57 76 142 164 175 175 177 163 167 195
317 295 8 350 324 307 292 287 286 264 259 288 230 227 203 73 63 75 83 73 58 58 81 91 104 110 128 122 106 93 84 81 69 71 60 47 43 121 182 186 175 187 200 199
332 297 335 328 335 334 313 274 275 294 288 271 241 215 150 56 39 56 56 44 31 30 42 54 52 66 88 111 116 97 74 58 52 51 45 56 51 51 160 169 167 176 158 153
316 291 291 302 276 301 297 308 326 298 300 281 258 240 285 266 293 14 34 30 9 24 31 39 31 30 34 41 72 96 78 61 58 56 27 354 61 51 88 115 204 166 154 154
320 293 288 277 190 319 343 339 300 276 275 285 280 282 4 10 26 37 37 29 17 30 31 28 20 23 23 23 64 94 84 55 42 36 24 1 41 12 139 149 156 161 155 140
345 295 282 272 79 7 310 301 280 258 284 266 278 280 355 25 37 36 26 28 27 29 21 18 23 28 20 17 22 65 62 46 28 15 20 13 35 30 145 133 124 131 144 135
355 316 306 317 342 341 317 305 297 284 283 268 259 262 5 21 23 23 22 26 26 21 15 13 20 26 18 14 11 26 42 42 33 45 58 39 20 43 127 116 109 118 128 121
343 242 225 243 273 277 272 272 265 237 240 272 258 272 313 343 356 2 7 6 5 11 12 10 10 11 14 10 9 11 21 33 29 49 67 51 23 39 65 95 97 109 115 113
3 260 260 269 276 274 262 259 241 231 239 248 281 284 293 314 322 334 344 346 351 356 1 357 357 356 2 4 5 10 20 32 35 55 57 45 35 45 59 84 82 90 87 78
357 280 301 280 251 255 268 264 246 241 249 258 277 283 288 304 326 334 339 336 331 335 340 342 345 354 357 355 356 10 26 31 45 54 43 35 45 52 57 77 80 86 84 81
209 232 289 279 310 310 272 245 228 232 234 234 250 265 303 309 311 317 320 316 311 320 329 330 333 341 345 347 353 9 24 35 50 52 40 32 41 60 59 72 76 78 85 95
179 200 248 285 326 257 240 156 195 226 248 244 259 285 303 299 303 315 312 311 320 323 319 318 325 337 345 351 359 20 35 55 53 50 44 33 38 48 52 71 77 66 72 90
195 192 244 259 268 271 250 226 169 227 276 256 258 282 301 321 325 331 354 354 329 322 319 320 319 328 346 359 21 36 56 59 49 44 38 28 38 43 43 54 66 66 76 79
152 182 223 239 250 257 254 113 85 75 279 288 273 286 300 327 302 290 335 342 337 344 346 343 341 5 25 47 51 49 64 67 40 25 33 32 35 42 36 37 58 60 80 86
178 201 218 232 242 264 256 152 120 187 260 318 314 297 307 289 271 303 335 341 348 351 349 358 3 52 67 75 64 50 63 56 29 34 43 44 42 43 34 34 56 64 71 82
186 193 202 205 225 250 157 139 190 229 304 323 321 320 313 301 309 326 330 335 347 349 351 0 13 33 50 72 78 58 53 35 35 47 51 50 42 35 35 63 65 69 90 98
203 202 200 203 219 234 176 205 229 276 294 310 319 325 316 310 313 318 319 324 334 338 342 355 2 23 43 49 65 59 19 51 51 63 59 48 37 44 51 91 105 104 109 121
217 197 222 252 257 252 234 240 257 265 273 299 316 319 315 306 308 313 314 319 328 333 337 348 359 20 16 21 18 357 348 71 79 74 71 60 50 47 37 81 90 101 140 143
214 182 213 247 267 277 250 235 249 271 295 305 310 312 298 295 299 303 308 310 315 321 325 334 342 338 330 351 345 318 346 84 84 84 91 69 62 77 43 46 42 72 155 169
203 199 206 236 234 221 256 241 228 247 269 281 294 307 311 290 286 297 301 305 306 310 316 324 330 317 309 329 322 329 21 101 107 81 73 73 77 69 77 71 38 32 33 28
Height
1488 1491 1492 1490 1488 1487 1485 1485 1484 1480 1478 1480 1478 1477 1475 1475 1475 1476 1476 1477 1477 1479 1480 1481 1482 1482 1483 1485 1485 1486 1486 1487 1488 1490 1491 1493 1494 1497 1499 1500 1502 1503 1504 1506
1490 1492 1490 1488 1487 1486 1485 1486 1484 1480 1477 1478 1477 1475 1473 1472 1473 1474 1475 1474 1475 1476 1477 1478 1480 1480 1481 1481 1482 1483 1484 1485 1486 1488 1489 1491 1492 1494 1495 1497 1499 1501 1502 1503
1492 1492 1489 1488 1488 1487 1485 1487 1485 1483 1479 1475 1475 1474 1470 1469 1470 1471 1472 1472 1473 1474 1474 1475 1476 1478 1478 1478 1480 1481 1482 1483 1484 1485 1487 1488 1489 1491 1492 1494 1496 1498 1500 1501
1492 1490 1490 1489 1489 1488 1487 1484 1483 1481 1483 1480 1476 1479 1469 1467 1468 1469 1469 1470 1471 1472 1473 1473 1474 1475 1476 1476 1477 1479 1480 1481 1482 1483 1484 1484 1485 1487 1489 1491 1493 1494 1496 1498
1494 1491 1491 1490 1489 1489 1487 1483 1482 1480 1481 1481 1475 1478 1469 1464 1466 1466 1466 1468 1469 1470 1470 1471 1472 1473 1474 1474 1475 1476 1477 1478 1479 1480 1481 1483 1483 1485 1487 1489 1490 1491 1493 1494
1493 1492 1492 1491 1489 1488 1486 1483 1479 1477 1481 1483 1473 1474 1470 1466 1465 1464 1465 1466 1467 1468 1468 1469 1470 1471 1472 1473 1473 1474 1474 1475 1476 1477 1478 1480 1481 1482 1484 1486 1487 1488 1490 1491
1493 1491 1491 1491 1490 1487 1488 1490 1488 1486 1483 1477 1467 1470 1470 1464 1463 1463 1465 1465 1466 1467 1467 1468 1469 1469 1470 1471 1471 1471 1472 1473 1474 1475 1476 1478 1480 1481 1482 1483 1484 1485 1486 1488
1498 1496 1492 1492 1492 1492 1490 1491 1495 1492 1485 1476 1468 1470 1468 1464 1464 1464 1465 1466 1466 1466 1467 1467 1468 1468 1469 1469 1469 1469 1470 1471 1472 1473 1474 1475 1477 1478 1479 1480 1481 1482 1484 1485
1502 1498 1493 1492 1491 1492 1491 1491 1490 1492 1486 1485 1472 1465 1466 1464 1464 1464 1465 1466 1466 1466 1466 1467 1467 1467 1467 1468 1468 1468 1468 1469 1470 1471 1472 1473 1474 1476 1477 1478 1478 1480 1481 1482
1505 1504 1495 1493 1492 1492 1492 1490 1492 1493 1490 1483 1471 1467 1471 1467 1466 1465 1466 1466 1467 1466 1466 1466 1466 1466 1466 1466 1467 1467 1468 1468 1468 1469 1471 1472 1472 1473 1474 1475 1476 1477 1478 1480
1504 1506 1499 1495 1496 1495 1494 1494 1494 1492 1489 1488 1482 1477 1469 1467 1466 1467 1467 1467 1466 1466 1465 1465 1465 1464 1464 1465 1465 1465 1466 1466 1467 1468 1468 1469 1469 1470 1471 1473 1473 1474 1476 1477
1505 1506 1503 1497 1495 1495 1495 1495 1497 1499 1494 1488 1488 1484 1472 1469 1468 1468 1468 1468 1467 1466 1466 1465 1464 1464 1463 1463 1463 1463 1463 1464 1464 1465 1466 1467 1467 1468 1469 1470 1471 1472 1473 1474
1505 1507 1506 1499 1500 1499 1498 1496 1497 1498 1496 1492 1488 1483 1472 1471 1470 1470 1470 1469 1468 1467 1466 1465 1463 1463 1462 1461 1461 1461 1461 1462 1463 1464 1464 1465 1465 1465 1466 1467 1469 1470 1471 1472
1505 1508 1508 1504 1499 1498 1500 1499 1497 1498 1497 1492 1483 1479 1475 1474 1473 1472 1471 1470 1469 1468 1466 1465 1463 1462 1462 1461 1460 1460 1460 1460 1461 1462 1462 1463 1463 1463 1464 1465 1466 1468 1469 1470
1505 1507 1504 1499 1495 1494 1494 1495 1495 1496 1492 1491 1482 1479 1476 1475 1474 1473 1472 1470 1469 1467 1466 1464 1463 1461 1461 1460 1459 1458 1458 1459 1459 1459 1460 1461 1461 1462 1462 1463 1464 1466 1467 1468
1506 1508 1504 1499 1491 1491 1491 1489 1489 1490 1489 1486 1483 1479 1475 1474 1473 1472 1471 1470 1468 1467 1465 1464 1462 1461 1460 1459 1458 1457 1457 1457 1457 1458 1458 1459 1459 1460 1460 1461 1462 1464 1465 1466
1506 1508 1506 1499 1491 1491 1491 1485 1485 1485 1484 1484 1483 1478 1474 1473 1472 1471 1470 1469 1468 1466 1465 1463 1461 1460 1458 1457 1456 1456 1456 1456 1457 1457 1457 1457 1458 1458 1459 1460 1461 1462 1463 1464
1506 1508 1506 1502 1499 1499 1485 1480 1480 1481 1481 1479 1477 1475 1473 1472 1470 1469 1469 1468 1466 1465 1463 1461 1460 1458 1457 1456 1455 1455 1455 1455 1456 1456 1456 1456 1457 1457 1458 1458 1459 1460 1461 1463
1503 1506 1505 1503 1500 1489 1482 1480 1480 1482 1481 1476 1475 1473 1472 1470 1468 1468 1467 1466 1465 1464 1462 1460 1458 1457 1455 1454 1454 1454 1454 1454 1454 1455 1455 1455 1456 1456 1457 1457 1458 1459 1460 1461
1504 1505 1507 1502 1500 1492 1480 1480 1478 1482 1481 1474 1473 1472 1471 1470 1471 1468 1466 1465 1463 1462 1460 1458 1456 1455 1454 1454 1453 1453 1453 1453 1454 1454 1454 1454 1455 1456 1456 1457 1457 1459 1460 1460
1506 1506 1506 1502 1498 1487 1480 1478 1479 1484 1479 1473 1471 1471 1470 1469 1469 1467 1464 1463 1461 1460 1458 1456 1454 1453 1453 1453 1453 1452 1452 1452 1453 1453 1454 1454 1455 1455 1456 1456 1457 1458 1459 1459
1499 1500 1500 1498 1496 1489 1478 1478 1479 1477 1473 1471 1470 1469 1468 1467 1466 1464 1463 1461 1459 1458 1456 1454 1453 1452 1452 1452 1451 1451 1451 1452 1452 1453 1453 1453 1454 1454 1455 1455 1456 1457 1458 1458
1490 1488 1487 1487 1483 1475 1474 1473 1472 1472 1471 1470 1469 1468 1466 1465 1464 1462 1461 1459 1458 1456 1455 1453 1452 1451 1451 1451 1451 1450 1451 1451 1451 1451 1452 1452 1453 1454 1454 1455 1455 1456 1456 1457
1482 1481 1482 1480 1474 1471 1471 1470 1470 1469 1469 1468 1467 1466 1465 1463 1462 1461 1459 1458 1456 1455 1454 1452 1451 1450 1450 1450 1450 1450 1450 1450 1450 1450 1451 1452 1452 1453 1453 1454 1454 1455 1455 1456
1475 1477 1477 1476 1471 1469 1467 1467 1467 1466 1466 1465 1464 1464 1463 1461 1460 1459 1457 1456 1455 1453 1453 1451 1450 1449 1449 1449 1449 1449 1449 1449 1449 1450 1451 1451 1452 1452 1452 1453 1453 1454 1454 1455
1470 1471 1472 1469 1465 1466 1464 1463 1463 1463 1462 1462 1461 1461 1460 1459 1458 1457 1455 1454 1453 1452 1451 1450 1449 1448 1448 1448 1448 1448 1449 1449 1449 1449 1450 1450 1450 1451 1451 1451 1452 1452 1453 1453